Home > Time Zones > World Clock > Weather > Spain > Ceuta > Past weeks

Flag Weather past 2 weeks in Ceuta, Ceuta, Spain

Now
66 °F

Overcast.


Feels Like: 66 °F
Forecast: 62 / 67 °F
Wind: 10 mph from Southeast

Location: Gibraltar Airport

Current Time: Nov 24, 2014 at 1:17:37 AM

Latest Report: Nov 23, 2014 at 11:50 PM


Visibility: N/A

Pressure: 29.86 "Hg

Humidity: 73%

Dew point: 57 °F

Location of CeutaLocation

Historic Weather in Ceuta — Graph

°F

Ceuta temperature yesterday

Maximum temperature yesterday: 70 °F (at 12:50 PM)
Minimum temperature yesterday: 63 °F (at 10:50 PM)
Average temperature yesterday: 66 °F

Past Weeks' High & Low Weather Summary

 TemperatureHumidityPressure
High70 °F (Nov 23, 12:50 PM)100% (Nov 11, 10:50 AM)30.07 "Hg (Nov 11, 10:50 AM)
Low52 °F (Nov 10, 7:50 AM)40% (Nov 16, 1:50 PM)29.71 "Hg (Nov 22, 4:50 PM)
Average63 °F78%29.93 "Hg
* Reported Nov 8 11:50 PM — Nov 23 11:50 PM, Ceuta, Weather by CustomWeather, © 2014

Note: Actual official high and low records may vary slightly from our data, if they occured in-between our weather recording intervals... More about our weather records

Advertising

Ceuta weather history for previous 24 hours

 ConditionsComfort  
Time TempWeatherWind HumidityBarometerVisibility
11:50 PM
Nov 23
66 °FOvercast.10 mph73%29.86 "HgN/A
10:50 PM63 °FLight rain. Passing clouds.6 mph88%29.86 "HgN/A
9:50 PM64 °FPassing clouds.5 mph83%29.83 "HgN/A
8:50 PM64 °FLight rain. Partly cloudy.5 mph83%29.86 "Hg6 mi
7:50 PM64 °FLight rain. Passing clouds.3 mph83%29.86 "HgN/A
6:50 PM64 °FLight rain. Partly cloudy.2 mph88%29.86 "HgN/A
5:50 PM68 °FSprinkles. Partly sunny.5 mph73%29.86 "Hg6 mi
4:50 PM68 °FLight rain. Broken clouds.6 mph73%29.83 "HgN/A
3:50 PM68 °FSunny.6 mph73%29.83 "Hg10 mi
2:50 PM68 °FSunny.7 mph73%29.80 "Hg10 mi
1:50 PM68 °FBroken clouds.7 mph73%29.83 "Hg5 mi
12:50 PM70 °FScattered clouds.8 mph64%29.83 "Hg6 mi
11:50 AM68 °FScattered clouds.9 mph73%29.86 "Hg6 mi
10:50 AM68 °FScattered clouds.9 mph69%29.86 "Hg6 mi
9:50 AM66 °FScattered clouds.12 mph73%29.83 "Hg6 mi
8:50 AM66 °FBroken clouds.10 mph78%29.83 "Hg5 mi
7:50 AM66 °FPartly cloudy.12 mph78%29.80 "Hg6 mi
6:50 AM66 °FPartly cloudy.9 mph78%29.80 "Hg6 mi
5:50 AM66 °FPassing clouds.13 mph73%29.77 "Hg4 mi
4:50 AM66 °FPassing clouds.9 mph78%29.77 "Hg3 mi
3:50 AM64 °FClear.12 mph83%29.77 "Hg3 mi
2:50 AM66 °FPassing clouds.14 mph83%29.77 "Hg4 mi
1:50 AM66 °FPartly cloudy.13 mph83%29.77 "Hg3 mi
Weather by CustomWeather, © 2014

See weather overviewHow to use our weather pages